Location: Burjasot
(39.5167°N, 0.4167°W)
Time: 13:31:41
(UTC+02:00)

ISS - Pass Details

Date: 25 May 2019
Orbit: 408 x 418 km, 51.6° (Epoch: 19 June)

Event Time Altitude Azimuth Distance (km) Brightness Sun altitude
Rises 01:46:45 0° 314° (NW) 2,364 0.7 -29.6°
Reaches altitude 10° 01:49:04 10° 327° (NNW) 1,500 -0.3 -29.6°
Enters shadow 01:49:45 14° 334° (NNW) 1,274 -0.6 -29.6°
